Погода в Минске

Погода в Минске : погода сейчас, прогноз погоды и архив. Всё, что Вы хотите узнать о погоде в Минске!

Хотите узнать прогноз погоды Минск? Тогда Вам сюда: Погода Минск

Поиск расширенной информации на нашем сайте:

Другие новости

Новости СМИ2

Главная страница сайта

Новости сайта

03.07.2017

Напоминаем, что на нашем специализированном сайте Метеоцентр.Азия вы можете получить высокодетализированные автоматические прогнозы погоды по пунктам России, СНГ и мира в авиационном формате (включающие направление и скорость ветра, видимость, явления погоды, количество и форму облачности, нижнюю и верхнюю границу облачности).


Погода в Минске - сегодня

Время (UTC), дата Ветер
(°,м/с) 
Видим.   Явления Облачность Т
(°С)
Тd
(°С)
f(%) Тe
(°С)
Pmin
(гПа)
dP
(гПа)
Po
(мм)
O2
(г/м3)
Тmin Tmax R s Состояние
почвы
00 19.11.17 190 (Ю) 8000 м  дымка  10/10 600 м 
[Sc]
-0.8 -1.5 95 1010.3  -1.5  737  298           
03 19.11.17 170 (Ю) 13000 м    10/10 720 м 
[Sc]
-0.5 -1.8 91 -1  1008.1  -2.1  735  297           
06 19.11.17 200 (Ю) 6000 м  дымка  10/10 330 м 
[Sc]
-0.1 -0.6 96 +1  1006.5  -1.5  734  296  -1         
09 19.11.17 180 (Ю) 7000 м  слаб. снег  10/10 270 м 
[Sc]
+1.2 +0.3 94 +1  1005.3  -1  733  294           
12 19.11.17 210 (ЮЗ) 7000 м  слаб. дождь{снег}  10/10 300 м 
[Sc]
+1.7 +0.6 92 1004.6  -0.7  733  293           
15 19.11.17 210 (ЮЗ) 16000 м  в посл. час дождь  10/8 300 м средняя 
[Sc|Ac trans]
+1.5 -0 90 +1  1005  0.4  733  294      0.7     
18 19.11.17 210 (ЮЗ) 12000 м  в посл. час дождь  10/10 270 м 
[Sc]
+1.9 +0.6 91 +1  1005.5  0.5  733  293    +1.9  0.7     
21 19.11.17 220 (ЮЗ) 13000 м    10/10 400 м 
[Sc]
+2.1 +0.5 89 +1  1006.2  0.7  734  293           
00 20.11.17 200 (Ю) 16000 м    9/0 средняя 
[Ac trans]
+2 +0.5 90 +3  1006  -0.2  734  293           
03 20.11.17 200 (Ю) 17000 м    10/0 средняя 
[Ac trans]
+1.6 +0.1 90 +1  1006.3  0.3  734  294           
06 20.11.17 170 (Ю) 16000 м    10/8 300 м средняя 
[Sc|Ac und]
+1.4 -0.8 85 +1  1006.9  0.5  734  294  +1.4         
09 20.11.17 190 (Ю) 8000 м  слаб. снег  10/10 270 м 
[Frnb]
+1.3 -0.4 88 +1  1007.6  0.7  735  295           
12 20.11.17 190 (Ю) 9000 м  {снег}  10/10 200 м 
[Frnb]
+1.9 -0.1 87 +1  1007.5  735  294           
15 20.11.17 160 (Ю) 8000 м  слаб. морось  10/10 210 м 
[Frnb]
+1.6 -0.3 87 +2  1007.9  0.3  735  294      0.1     
18 20.11.17 тихо ()   2400 м  слаб. дождь{снег}  10/10 180 м 
[Frnb]
+0.6 +0.2 97 +1  1007.8  -0.2  735  295    +2  0.7     
21 20.11.17 тихо ()   7000 м  дымка{дождь}  10/10 300 м 
[Frnb]
+0.8 +0 94 +1  1007.7  735  295           
00 21.11.17 250 (З) 8000 м  слаб. дождь{снег}  10/10 270 м 
[Frnb]
+0.9 -0 94 +2  1008  0.3  735  295           
03 21.11.17 280 (З) 10 км  дымка{дождь}  10/10 330 м 
[Sc]
+0.7 -0.3 93 +1  1008.5  0.4  735  296      0.5     
06 21.11.17 300 (СЗ) 8000 м  дымка{дождь}  10/10 360 м 
[Sc]
+0.6 -0.4 93 1009.3  0.8  736  296  +0.5    0.5     
09 21.11.17 280 (З) 9000 м  слаб. снег  10/10 270 м 
[Sc]
+0.4 -0.9 91 +1  1010.6  1.2  737  297           
12 21.11.17 290 (З) 14000 м  {снег}  10/10 360 м 
[Sc]
+1.1 -0.6 88 1010.8  0.3  737  296           
15 21.11.17 330 (СЗ) 10 км  {снег}  10/10 450 м 
[Sc]
+0.7 -1.3 86 1011.6  0.7  738  297      0.0     
18 21.11.17 330 (СЗ) 12000 м  {снег}  3/0 средняя 
[Ac trans]
-0.6 -2.7 86 1012.2  0.5  738  298    +1.4  0.0     
21 21.11.17 тихо ()   12000 м    8/0 средняя 
[Ac trans]
-0.7 -2.3 89 -1  1012.5  0.3  738  298           
00 22.11.17 280 (З) 15000 м    10/10 870 м 
[Sc]
-0.7 -2.2 90 -2  1012.9  0.4  739  299           
Время (UTC), дата Ветер
(°,м/с) 
Видим.   Явления Облачность Т
(°С)
Тd
(°С)
f(%) Тe
(°С)
Pmin
(гПа)
dP
(гПа)
Po
(мм)
O2
(г/м3)
Тmin Tmax R s Состояние
почвы

Для получения пояснительной информации подведите курсор к названию столбца.

ПОГОДА в Минске - архив

Всё, что Вы хотите узнать о погоде в Минске - удобно и подробно!

Выберите нужную дату (начиная с 1 января 2015* года) и нажмите кнопку "Найти".
Будут отображены архивные сводки погоды по пункту Минск, начиная с указанной даты.


Отображать данные в формате CSV (для использования в таблицах Excel)


Внимание! Наш архив погоды предназначен исключительно для личного некоммерческого использования в познавательных целях. Если Вам необходимы официальные справки о состоянии погоды (для производственных, юридических, коммерческих и т.п. целей), обращайтесь в органы Росгидромета.

*Примечание: данная дата относится к архиву по метеостанциям СССР (Россия, СНГ, Балтия).
Архив по метеостанциям Зарубежной Европы и Азии (кроме Китая) хранится 10 дней, по другим регионам земного шара (Китай, Африка, Америка, Австралия, Океания) - 1 день.

Минск - район местоположения метеостанции


Название, широта, долгота, высота метеостанции:
Минск (город) 53.9°ш. 27.6°д. 231 м над ур. моря [Беларусь]

Дополнительная информация

В oтличие oт бoльшинства пoгoдных сайтoв мы публикуем пoдрoбную метеoинфoрмацию в детальнoм прoфессиoнальнoм фoрмате.

Характеристики температуры и влажнoсти вoздуха измеряются на высoте 2 м в тени вдали oт зданий и деревьев.
Скoрoсть ветра измеряется на высoте 10 м (на урoвне рoста челoвека скoрoсть ветра ниже в 1.5-2 раза). Если метеoстанция нахoдится в гoрoде или в лесу, тo скoрoсть ветра занижена на 2-4 м/с пo сравнению с oткрытым местoм. Скoрoсть ветра над акватoриями крупных рек и oзёр, а также на вершинах хoлмoв на 2-5 м/с выше, чем в oбычных услoвиях.
Атмoсфернoе давление в разных тoчках местнoсти мoжет значительнo oтличаться oт давления на метеoстанции, в зависимoсти oт услoвий рельефа (при пoдъёме на 10 м давление пoнижается примернo на 1 мм рт.ст.).